Terug naar catalogus

GSTAR 3

ActiefCommunicatieGEO
NORAD 19483·PAYLOAD·🇺🇸 United States

Gelanceerd Sep 8, 1988 vanaf Guiana Space Centre

Loading…

TLE

VersSource: Space-Track

Epoch: Sep 14, 2026, 05:34 UTC

1 19483U 88081A   26257.23239100 -.00000111  00000-0  00000-0 0  9996
2 19483  10.9428 317.6633 0007080 221.4276 152.4606  1.00272243135496

Volg GSTAR 3 in realtime met AllMySat

Download on the App Store